千帆星座-57 (QIANFAN-57)

导读

QIANFAN-57 是中国北斗卫星导航系统的一部分,属于北斗三号系统的地球静止轨道卫星。该卫星由中国自主研发,主要用于提供高精度定位、导航和授时服务,增强区域及全球服务能力。QIANFAN-57 的成功发射和运行,进一步提升了北斗系统的稳定性和覆盖范围,为交通运输、气象预报、通信、农业等多个领域提供重要支持,标志着中国在卫星导航技术领域的持续进步和自主创新能力的增强。

Basic Information
目录编号:
62787
目录名称:
QIANFAN-57
国际标识:
2025-016C
轨道中心:
EARTH
卫星名称:
千帆星座-57
卫星全名:
千帆星座-57 (QIANFAN-57)
卫星状态:
在轨 (已飞行506 天)
发射日期:
2025-01-23 UTC
国别 :
中国 (CN)
星等 :
--
Orbit Information
数据来源 国际轨道数据 AOE轨道数据
星历时间 2026-06-13T03:10:10+0800
8小时前
查看轨道信息
2026-06-12T03:00:00+0800
1天前
查看轨道信息
半长轴 7446.655km 7446.644km
偏心率 0.0002446 0.0002318
轨道倾角 88.975° 88.973°
近地点辐角 56.208° 59.280°
升交点赤经 84.330° 84.434°
平近点角 303.931° 85.799°
近地点 1066.696km 1066.78km
远地点 1070.34km 1070.234km
周期 106.586分钟 106.586分钟
每日圈数 13.510175 13.510205
Detailed Information
卫星平台:
57
覆盖范围:
全球
运营商:
上海垣信卫星科技有限公司
运营商所在国:
中国
使用方式:
暂无
Satellite Introduction
千帆星座,也被称为“G60星链”计划,是中国版“星链”的重要组成部分,旨在打造一个由1.4万多颗低轨宽频多媒体卫星构成的庞大星座。千帆星座计划由上海垣信卫星科技有限公司负责实施,于2023年启动建设。该项目是我国第二个低轨卫星大星座,旨在通过构建庞大的卫星网络,为全球用户提供高质量的通信和宽带互联网服务。
2D Orbit Map
3D Orbit Map
Orbit Altitude Analysis Chart
Orbit Inclination Analysis Chart
Orbit Comprehensive Analysis Chart
View Comprehensive Chart